Weather History for Lanai City, HI

Change the Weather History Date:

Saturday, May 19, 2012

  Actual Average Record
Temperature  
Mean Temperature 72 °F -  
Max Temperature 81 °F 79 °F 83 °F (1980)
Min Temperature 63 °F 63 °F 59 °F (1955)
Cooling Degree Days 7    
Growing Degree Days 22 (Base 50)    
Moisture  
Dew Point 62 °F    
Average Humidity 72    
Maximum Humidity 90    
Minimum Humidity 54    
Precipitation  
Precipitation 0.00 in - - ()
Sea Level Pressure  
Sea Level Pressure 30.06 in    
Wind  
Wind Speed 12 mph (NE)    
Max Wind Speed 24 mph    
Max Gust Speed -    
Visibility 10 miles    
Events      
Averages and records for this station are not official NWS values.
T = Trace of Precipitation, MM = Missing Value Source: NWS Daily Summary

Daily Weather History Graph

Daily Weather History Graph

Search for Another Location

Airport:

Trip Planner

Search our weather history database for the weather conditions in past years. The results will help you decide how hot, cold, wet, or windy it might be!

Date:

Astronomy

May. 19, 2012 Rise Set
Actual Time 5:48 AM HST 7:00 PM HST
Civil Twilight 5:24 AM HST 7:24 PM HST
Nautical Twilight 4:56 AM HST 7:52 PM HST
Astronomical Twilight 4:27 AM HST 8:21 PM HST
Moon 4:53 AM HST (5/19) 6:16 PM HST (5/19)
Length of Visible Light 13h 59m
Length of Day
13h 11m
Waning Crescent, 1% of the Moon is Illuminated
May 19
Waning Crescent
May 20
New
May 28
First Quarter
Jun 4
Full
Jun 11
Last Quarter

Hourly Weather History & Observations

Time (HST) Temp. Heat Index Dew Point Humidity Pressure Visibility Wind Dir Wind Speed Gust Speed Precip Events Conditions
12:56 AM 66.9 °F - 61.9 °F 84% 30.06 in 10.0 mi NNE 10.4 mph - N/A   Clear
1:56 AM 65.8 °F - 61.9 °F 87% 30.05 in 10.0 mi East 8.1 mph - N/A   Clear
2:56 AM 64.9 °F - 61.0 °F 87% 30.04 in 10.0 mi NE 8.1 mph - N/A   Clear
3:56 AM 63.0 °F - 59.0 °F 87% 30.04 in 10.0 mi ENE 5.8 mph - N/A   Clear
4:56 AM 63.0 °F - 59.9 °F 90% 30.05 in 10.0 mi NE 4.6 mph - N/A   Clear
5:56 AM 65.8 °F - 63.0 °F 90% 30.06 in 10.0 mi ENE 10.4 mph - N/A   Clear
6:56 AM 68.9 °F - 63.0 °F 81% 30.07 in 10.0 mi ENE 8.1 mph - N/A   Clear
7:56 AM 73.9 °F - 61.9 °F 66% 30.07 in 10.0 mi ENE 11.5 mph - N/A   Clear
8:56 AM 73.9 °F - 63.0 °F 68% 30.08 in 10.0 mi NE 10.4 mph - N/A   Scattered Clouds
9:23 AM 75.2 °F - 62.6 °F 65% 30.13 in 10.0 mi NE 12.7 mph - N/A   Mostly Cloudy
9:35 AM 75.2 °F - 62.6 °F 65% 30.13 in 10.0 mi NE 15.0 mph - N/A   Mostly Cloudy
9:46 AM 75.2 °F - 62.6 °F 65% 30.14 in 10.0 mi Variable 6.9 mph - N/A   Overcast
9:56 AM 74.8 °F - 63.9 °F 69% 30.08 in 10.0 mi Variable 5.8 mph - N/A   Overcast
10:56 AM 77.0 °F - 61.9 °F 59% 30.08 in 10.0 mi East 9.2 mph - N/A   Mostly Cloudy
11:31 AM 77.0 °F - 62.6 °F 61% 30.13 in 10.0 mi NE 16.1 mph - N/A   Mostly Cloudy
11:56 AM 79.9 °F - 63.0 °F 56% 30.06 in 10.0 mi NNE 12.7 mph - N/A   Scattered Clouds
12:56 PM 81.0 °F 82.2 °F 63.0 °F 54% 30.05 in 10.0 mi NE 18.4 mph - N/A   Partly Cloudy
1:56 PM 81.0 °F 82.2 °F 63.0 °F 54% 30.02 in 10.0 mi NE 19.6 mph - N/A   Clear
2:56 PM 79.9 °F - 61.9 °F 54% 30.01 in 10.0 mi NNE 21.9 mph - N/A   Clear
3:56 PM 77.9 °F - 61.9 °F 58% 30.01 in 10.0 mi NNE 21.9 mph - N/A   Clear
4:56 PM 75.9 °F - 61.0 °F 60% 30.00 in 10.0 mi NE 20.7 mph - N/A   Clear
5:56 PM 73.9 °F - 61.9 °F 66% 30.01 in 10.0 mi NNE 24.2 mph - N/A   Clear
6:56 PM 70.0 °F - 61.9 °F 75% 30.01 in 10.0 mi NE 21.9 mph - N/A   Clear
7:56 PM 68.9 °F - 61.9 °F 78% 30.03 in 10.0 mi NE 21.9 mph - N/A   Clear
8:56 PM 68.0 °F - 61.9 °F 81% 30.05 in 10.0 mi NE 18.4 mph - N/A   Clear
9:56 PM 66.9 °F - 59.9 °F 78% 30.07 in 10.0 mi NE 19.6 mph - N/A   Clear
10:56 PM 66.9 °F - 61.0 °F 81% 30.07 in 10.0 mi NE 18.4 mph - N/A   Clear
11:56 PM 66.9 °F - 61.9 °F 84% 30.06 in 10.0 mi NE 13.8 mph - N/A   Clear